#timestamp,LO_Frequency,Hit,StdDev 
1582188055.8,286046873.0,P
1582188075.7,286046870.7,P
1582188095.5,286046871.4,P
1582188115.4,286046869.6,Y
1582188135.2,286046996.2,P
1582188155.0,286046993.3,N
1582188155.9,286046993.3,N
1582188175.8,286046994.3,N
1582188195.6,286046992.1,N
1582188215.5,286046991.4,N
1582188235.3,286046988.7,N
1582188255.1,286046989.3,N
1582188275.9,286046989.9,N
1582188295.7,286046987.8,N
1582188315.5,286046985.3,N
1582188335.4,286046988.1,N
1582188355.2,286046986.7,N
1582188375.1,286046984.5,N
1582188376.0,286046984.5,N
1582188395.8,286046983.4,N
1582188415.6,286046983.4,N
1582188435.5,286046982.9,N
1582188455.3,286046983.6,N
1582188475.2,286046981.2,N
1582188495.9,286046981.2,N
1582188515.7,286046980.2,N
1582188535.6,286046980.2,N
1582188555.4,286046980.3,N
1582188575.3,286046978.6,N
1582188595.1,286046976.3,N
1582188596.0,286046976.3,N
1582188615.8,286046977.1,N
1582188635.7,286046975.2,N
1582188655.5,286046975.5,N
1582188675.3,286046974.8,Y
1582188695.2,286046991.6,P
1582188715.0,286046989.5,P
1582188715.9,286046989.5,P
1582188735.8,286046985.8,Y
1582188755.6,286046997.7,P
1582188775.4,286046993.9,N
1582188795.3,286046992.8,N
1582188815.1,286046989.0,Y
1582188835.9,286046993.8,P
1582188855.7,286046991.7,P
1582188875.5,286046992.6,P
1582188895.4,286046990.3,Y
1582188915.2,286046997.8,P
1582188935.1,286046996.4,N
1582188936.0,286046996.4,N
1582188955.8,286046993.6,Y
1582188975.6,286046997.7,P
1582188995.5,286046995.1,P
1582189015.3,286046995.1,P
1582189035.2,286046994.5,Y
1582189055.9,286046995.4,P
1582189075.7,286046993.9,P
1582189095.6,286046992.4,P
1582189115.4,286046992.9,Y
1582189135.2,286046995.2,P
1582189155.1,286046995.7,P
1582189156.0,286046995.7,P
1582189175.8,286046994.1,Y
1582189195.7,286046997.8,P
